Weather Service Report


081 
ASUS43 KLMK 281110
RWRKY 
KENTUCKY REGIONAL WEATHER ROUNDUP
NATIONAL WEATHER SERVICE LOUISVILLE KY
700 AM EDT MON JUL 28 2014

NOTE "FAIR" INDICATES FEW OR NO CLOUDS BELOW 12,000 FEET
WITH NO SIGNIFICANT WEATHER AND/OR OBSTRUCTIONS TO VISIBILITY.

KYZ001>023-026-027-061>063-070>075-281200-
WESTERN AND SOUTH CENTRAL KENTUCKY
  
CITY           SKY/WX    TMP DP  RH WIND       PRES   REMARKS
PADUCAH        CLEAR     66  58  75 W6        30.01R                  
HENDERSON      CLEAR     63  57  82 W6        29.97R                  
OWENSBORO      CLEAR     63  59  87 W6        29.97R                  
HOPKINSVILLE   CLEAR     65  59  79 W3        29.99R                  
BOWLING GREEN  CLEAR     65  57  75 W6        29.97R                  
GLASGOW        CLEAR     63  58  83 CALM      29.96S                  
$$

KYZ024-025-028>034-038-045-046-053-281200-
NORTH CENTRAL KENTUCKY
  
CITY           SKY/WX    TMP DP  RH WIND       PRES   REMARKS
LOUISVILLE/SDF PTCLDY    66  59  78 W10       29.92R                  
LOUISVILLE/LOU CLEAR     65  59  81 W7        29.93R                  
FORT KNOX      CLEAR     61  59  93 W5        29.93R                  
$$

KYZ035>037-039>044-047>052-055>060-089>105-281200-
NORTHEAST KENTUCKY
  
CITY           SKY/WX    TMP DP  RH WIND       PRES   REMARKS
LEXINGTON      CLEAR     64  58  80 W8        29.91R                  
COVINGTON      PTCLDY    63  57  81 W8        29.88R                  
FRANKFORT      CLEAR     62  59  90 W5        29.90R                  
$$

KYZ054-064>069-076>088-106>120-281200-
SOUTHEAST KENTUCKY
  
CITY           SKY/WX    TMP DP  RH WIND       PRES   REMARKS
JACKSON        CLEAR     63  60  90 VRB6      29.90S                  
LONDON         MOCLDY    66  60  81 W5        29.93R                  
SOMERSET       CLEAR     63  61  94 W3        29.95R                  
MIDDLESBORO    FOG       65  65 100 CALM      29.93R VSB<1/4          
MONTICELLO     SUNNY     62  61  97 CALM      29.96R                  
$$


Return to Home page


Western Regional Climate Center, wrcc@dri.edu